sat.trackr.live / text

‹ back to catalog

STARLINK-30069

NORAD 56834 · 2023-079M

PAYLOAD ACTIVE UNKNOWN

§ Identity

Operator
Country
US
Launch date
2023-06-04
Launch site
AFETR
Launch vehicle
Mass (kg)
RCS (m²)

Purposes: comms

External: N2YO · Heavens-Above · Gunter

§ Orbital elements

Epoch: 2026-09-19T19:02:10.813344Z

Period
94.27 min
Inclination
43.0028°
Eccentricity
0.0001631
Mean motion
15.27577843 rev/d
Perigee alt
481.9 km
Apogee alt
484.2 km
Semi-major
6,861.2 km
B*
1.5011e-5
RAAN
87.4615°
Arg perigee
264.5708°
Mean anomaly
95.4958°
Rev number
18,261

§ Raw data

STARLINK-300691 56834U 23079M   26262.79318071  .00000151  00000+0  15011-4 0  99992 56834  43.0028  87.4615 0001631 264.5708  95.4958 15.27577843182616

JSON: /api/v1/satellites/56834 · /tle

For live sub-satellite position, see the globe view (requires WebGL).

§ Visibility from observer

Set your observer location to see the next 7 days of passes ≥ 10°. The values pass through the URL so the page stays shareable.

No JS? Fill the form by hand. The geolocation button needs JavaScript.